Time,TemperatureF,DewpointF,PressureIn,WindDirection,WindDirectionDegrees,WindSpeedMPH,WindSpeedGustMPH,Humidity,HourlyPrecipIn,Conditions,Clouds,dailyrainin,SoftwareType,DateUTC
2013-02-09 00:01:00,6.0,3.0,30.35,NE,45,0.0,0.0,89,0.00,,,0.05,,2013-02-09 06:01:00,
2013-02-09 00:11:00,6.0,3.0,30.35,NE,45,0.0,0.0,89,0.00,,,0.05,,2013-02-09 06:11:00,
2013-02-09 00:21:00,6.0,3.0,30.34,NE,44,0.0,0.0,88,0.00,,,0.05,,2013-02-09 06:21:00,
2013-02-09 00:31:00,6.0,3.0,30.33,NE,44,0.0,0.0,88,0.00,,,0.05,,2013-02-09 06:31:00,
2013-02-09 00:42:00,6.0,3.0,30.33,NE,44,0.0,0.0,88,0.00,,,0.05,,2013-02-09 06:42:00,
2013-02-09 00:52:00,5.0,2.0,30.34,NE,45,0.0,0.0,88,0.00,,,0.05,,2013-02-09 06:52:00,
2013-02-09 01:01:00,5.0,2.0,30.34,NE,45,0.0,0.0,88,0.00,,,0.05,,2013-02-09 07:01:00,
2013-02-09 01:11:00,5.0,2.0,30.34,NE,45,0.0,0.0,88,0.00,,,0.05,,2013-02-09 07:11:00,
2013-02-09 01:21:00,4.0,1.0,30.34,NE,45,0.0,0.0,88,0.00,,,0.05,,2013-02-09 07:21:00,
2013-02-09 01:31:00,4.0,1.0,30.34,NE,45,0.0,0.0,88,0.00,,,0.05,,2013-02-09 07:31:00,
2013-02-09 01:42:00,4.0,1.0,30.34,NE,45,0.0,0.0,88,0.00,,,0.05,,2013-02-09 07:42:00,
2013-02-09 01:52:00,4.0,1.0,30.35,NE,45,0.0,0.0,87,0.00,,,0.05,,2013-02-09 07:52:00,
2013-02-09 02:01:00,3.0,0.0,30.36,NE,45,0.0,0.0,88,0.00,,,0.05,,2013-02-09 08:01:00,
2013-02-09 02:11:00,3.0,0.0,30.36,NE,45,0.0,0.0,88,0.00,,,0.05,,2013-02-09 08:11:00,
2013-02-09 02:21:00,3.0,0.0,30.36,NE,45,0.0,0.0,88,0.00,,,0.05,,2013-02-09 08:21:00,
2013-02-09 02:31:00,4.0,2.0,30.35,NE,45,0.0,0.0,89,0.00,,,0.05,,2013-02-09 08:31:00,
2013-02-09 02:42:00,4.0,2.0,30.35,NE,45,0.0,0.0,89,0.00,,,0.05,,2013-02-09 08:42:00,
2013-02-09 02:52:00,5.0,2.0,30.34,NE,45,0.0,0.0,89,0.00,,,0.05,,2013-02-09 08:52:00,
2013-02-09 03:03:00,6.0,3.0,30.34,NE,45,0.0,0.0,89,0.00,,,0.05,,2013-02-09 09:03:00,
2013-02-09 03:11:00,6.0,3.0,30.34,NE,45,0.0,0.0,89,0.00,,,0.05,,2013-02-09 09:11:00,
2013-02-09 03:21:00,7.0,4.0,30.33,NE,45,0.0,0.0,89,0.00,,,0.05,,2013-02-09 09:21:00,
2013-02-09 03:31:00,8.0,5.0,30.33,NE,45,0.0,1.0,89,0.00,,,0.05,,2013-02-09 09:31:00,
2013-02-09 03:41:00,8.0,5.0,30.33,NE,45,0.0,1.0,89,0.00,,,0.05,,2013-02-09 09:41:00,
2013-02-09 03:52:00,8.0,5.0,30.34,SSE,157,0.0,2.0,89,0.00,,,0.05,,2013-02-09 09:52:00,
2013-02-09 04:01:00,8.0,5.0,30.34,SSE,157,0.0,0.0,89,0.00,,,0.05,,2013-02-09 10:01:00,
2013-02-09 04:11:00,8.0,5.0,30.34,SSE,157,0.0,0.0,89,0.00,,,0.05,,2013-02-09 10:11:00,
2013-02-09 04:21:00,9.0,7.0,30.33,SSE,157,0.0,0.0,90,0.00,,,0.05,,2013-02-09 10:21:00,
2013-02-09 04:31:00,10.0,8.0,30.33,South,173,1.0,4.0,90,0.00,,,0.05,,2013-02-09 10:31:00,
2013-02-09 04:41:00,10.0,8.0,30.33,South,173,1.0,4.0,90,0.00,,,0.05,,2013-02-09 10:41:00,
2013-02-09 04:52:00,12.0,10.0,30.32,South,178,0.0,2.0,91,0.00,,,0.05,,2013-02-09 10:52:00,
2013-02-09 05:01:00,13.0,11.0,30.32,South,190,0.0,4.0,90,0.00,,,0.05,,2013-02-09 11:01:00,
2013-02-09 05:11:00,13.0,11.0,30.32,South,190,0.0,4.0,90,0.00,,,0.05,,2013-02-09 11:11:00,
2013-02-09 05:22:00,13.0,11.0,30.32,SSW,202,0.0,2.0,90,0.00,,,0.05,,2013-02-09 11:22:00,
2013-02-09 05:31:00,14.0,12.0,30.31,South,176,0.0,2.0,91,0.00,,,0.05,,2013-02-09 11:31:00,
2013-02-09 05:41:00,14.0,12.0,30.31,South,176,0.0,2.0,91,0.00,,,0.05,,2013-02-09 11:41:00,
2013-02-09 05:52:00,14.0,12.0,30.32,South,177,0.0,2.0,91,0.00,,,0.05,,2013-02-09 11:52:00,
2013-02-09 06:02:00,15.0,13.0,30.32,South,176,0.0,2.0,91,0.00,,,0.05,,2013-02-09 12:02:00,
2013-02-09 06:11:00,15.0,13.0,30.32,South,176,0.0,2.0,91,0.00,,,0.05,,2013-02-09 12:11:00,
2013-02-09 06:21:00,15.0,13.0,30.31,South,177,0.0,1.0,91,0.00,,,0.05,,2013-02-09 12:21:00,
2013-02-09 06:32:00,15.0,13.0,30.32,South,177,0.0,1.0,91,0.00,,,0.05,,2013-02-09 12:32:00,
2013-02-09 06:42:00,15.0,13.0,30.32,South,177,0.0,1.0,91,0.00,,,0.05,,2013-02-09 12:42:00,
2013-02-09 06:52:00,16.0,14.0,30.31,South,176,0.0,0.0,91,0.00,,,0.05,,2013-02-09 12:52:00,
2013-02-09 07:02:00,16.0,14.0,30.31,South,176,0.0,2.0,91,0.00,,,0.05,,2013-02-09 13:02:00,
2013-02-09 07:11:00,16.0,14.0,30.31,South,176,0.0,2.0,91,0.00,,,0.05,,2013-02-09 13:11:00,
2013-02-09 07:21:00,16.0,14.0,30.31,South,177,0.0,0.0,91,0.00,,,0.05,,2013-02-09 13:21:00,
2013-02-09 07:32:00,17.0,15.0,30.31,South,177,0.0,4.0,92,0.00,,,0.05,,2013-02-09 13:32:00,
2013-02-09 07:42:00,17.0,15.0,30.31,South,177,0.0,4.0,92,0.00,,,0.05,,2013-02-09 13:42:00,
2013-02-09 07:52:00,18.0,16.0,30.30,South,171,2.0,5.0,92,0.00,,,0.05,,2013-02-09 13:52:00,
2013-02-09 08:01:00,18.0,16.0,30.29,SSW,194,1.0,3.0,92,0.00,,,0.05,,2013-02-09 14:01:00,
2013-02-09 08:11:00,18.0,16.0,30.29,SSW,194,1.0,3.0,92,0.00,,,0.05,,2013-02-09 14:11:00,
2013-02-09 08:21:00,19.0,17.0,30.29,SE,145,1.0,5.0,92,0.00,,,0.05,,2013-02-09 14:21:00,
2013-02-09 08:31:00,20.0,18.0,30.29,South,176,7.0,10.0,93,0.00,,,0.05,,2013-02-09 14:31:00,
2013-02-09 08:41:00,20.0,18.0,30.29,South,176,7.0,10.0,93,0.00,,,0.05,,2013-02-09 14:41:00,
2013-02-09 08:52:00,20.0,18.0,30.28,South,184,5.0,9.0,93,0.00,,,0.05,,2013-02-09 14:52:00,
2013-02-09 09:02:00,21.0,19.0,30.28,SSW,199,6.0,8.0,93,0.00,,,0.05,,2013-02-09 15:02:00,
2013-02-09 09:11:00,21.0,19.0,30.28,SSW,199,6.0,8.0,93,0.00,,,0.05,,2013-02-09 15:11:00,
2013-02-09 09:21:00,21.0,19.0,30.27,South,169,3.0,10.0,93,0.00,,,0.05,,2013-02-09 15:21:00,
2013-02-09 09:32:00,21.0,19.0,30.27,SSE,164,6.0,14.0,93,0.00,,,0.05,,2013-02-09 15:32:00,
2013-02-09 09:42:00,21.0,19.0,30.27,SSE,164,6.0,14.0,93,0.00,,,0.05,,2013-02-09 15:42:00,
2013-02-09 09:52:00,21.0,19.0,30.26,South,176,8.0,16.0,92,0.00,,,0.05,,2013-02-09 15:52:00,
2013-02-09 10:01:00,21.0,19.0,30.26,South,187,6.0,11.0,93,0.00,,,0.05,,2013-02-09 16:01:00,
2013-02-09 10:11:00,21.0,19.0,30.26,South,187,6.0,11.0,93,0.00,,,0.05,,2013-02-09 16:11:00,
2013-02-09 10:22:00,21.0,19.0,30.26,SSE,152,6.0,18.0,92,0.00,,,0.05,,2013-02-09 16:22:00,
2013-02-09 10:31:00,22.0,20.0,30.25,SSW,211,5.0,14.0,92,0.00,,,0.05,,2013-02-09 16:31:00,
2013-02-09 10:41:00,22.0,20.0,30.25,SSW,211,5.0,14.0,92,0.00,,,0.05,,2013-02-09 16:41:00,
2013-02-09 10:52:00,22.0,20.0,30.25,SSW,195,7.0,16.0,91,0.00,,,0.05,,2013-02-09 16:52:00,
2013-02-09 11:01:00,23.0,21.0,30.25,South,188,8.0,14.0,90,0.00,,,0.05,,2013-02-09 17:01:00,
2013-02-09 11:11:00,23.0,21.0,30.25,South,188,8.0,14.0,90,0.00,,,0.05,,2013-02-09 17:11:00,
2013-02-09 11:21:00,23.0,20.0,30.25,SSW,192,7.0,13.0,89,0.00,,,0.05,,2013-02-09 17:21:00,
2013-02-09 11:32:00,24.0,21.0,30.24,South,183,7.0,14.0,89,0.00,,,0.05,,2013-02-09 17:32:00,
2013-02-09 11:41:00,24.0,21.0,30.24,South,183,7.0,14.0,89,0.00,,,0.05,,2013-02-09 17:41:00,
2013-02-09 11:52:00,24.0,21.0,30.23,South,186,7.0,14.0,88,0.00,,,0.05,,2013-02-09 17:52:00,
2013-02-09 12:02:00,24.0,21.0,30.22,SSW,202,8.0,12.0,88,0.00,,,0.05,,2013-02-09 18:02:00,
2013-02-09 12:12:00,24.0,21.0,30.22,SSW,202,8.0,12.0,88,0.00,,,0.05,,2013-02-09 18:12:00,
2013-02-09 12:23:00,25.0,22.0,30.21,South,170,8.0,14.0,87,0.00,,,0.05,,2013-02-09 18:23:00,
2013-02-09 12:32:00,25.0,22.0,30.21,South,175,8.0,16.0,87,0.00,,,0.05,,2013-02-09 18:32:00,
2013-02-09 12:42:00,25.0,22.0,30.21,South,175,8.0,16.0,87,0.00,,,0.05,,2013-02-09 18:42:00,
2013-02-09 12:52:00,25.0,21.0,30.20,SSW,194,9.0,15.0,86,0.00,,,0.05,,2013-02-09 18:52:00,
2013-02-09 13:01:00,25.0,21.0,30.20,South,186,6.0,19.0,86,0.00,,,0.05,,2013-02-09 19:01:00,
2013-02-09 13:11:00,25.0,21.0,30.20,South,186,6.0,19.0,86,0.00,,,0.05,,2013-02-09 19:11:00,
2013-02-09 13:22:00,26.0,22.0,30.19,South,178,9.0,14.0,86,0.00,,,0.05,,2013-02-09 19:22:00,
2013-02-09 13:31:00,26.0,22.0,30.18,South,184,7.0,11.0,86,0.00,,,0.05,,2013-02-09 19:31:00,
2013-02-09 13:42:00,26.0,22.0,30.18,South,184,7.0,11.0,86,0.00,,,0.05,,2013-02-09 19:42:00,
2013-02-09 13:52:00,26.0,22.0,30.18,South,179,7.0,19.0,85,0.00,,,0.05,,2013-02-09 19:52:00,
2013-02-09 14:01:00,26.0,22.0,30.18,SSW,192,5.0,14.0,86,0.00,,,0.04,,2013-02-09 20:01:00,
2013-02-09 14:11:00,26.0,22.0,30.18,SSW,192,5.0,14.0,86,0.00,,,0.04,,2013-02-09 20:11:00,
2013-02-09 14:21:00,27.0,23.0,30.18,SSE,166,7.0,14.0,86,0.00,,,0.04,,2013-02-09 20:21:00,
2013-02-09 14:31:00,27.0,23.0,30.17,SSW,196,4.0,12.0,85,0.00,,,0.04,,2013-02-09 20:31:00,
2013-02-09 14:42:00,27.0,23.0,30.17,SSW,196,4.0,12.0,85,0.00,,,0.04,,2013-02-09 20:42:00,
2013-02-09 14:52:00,27.0,23.0,30.16,SSE,157,4.0,12.0,85,0.00,,,0.04,,2013-02-09 20:52:00,
2013-02-09 15:02:00,27.0,23.0,30.16,South,182,6.0,13.0,85,0.00,,,0.04,,2013-02-09 21:02:00,
2013-02-09 15:11:00,27.0,23.0,30.16,South,182,6.0,13.0,85,0.00,,,0.04,,2013-02-09 21:11:00,
2013-02-09 15:21:00,27.0,23.0,30.16,South,172,6.0,13.0,85,0.00,,,0.04,,2013-02-09 21:21:00,
2013-02-09 15:31:00,27.0,23.0,30.16,South,169,7.0,18.0,85,0.00,,,0.04,,2013-02-09 21:31:00,
2013-02-09 15:41:00,27.0,23.0,30.16,South,169,7.0,18.0,85,0.00,,,0.04,,2013-02-09 21:41:00,
2013-02-09 15:52:00,27.0,23.0,30.16,South,191,7.0,12.0,84,0.00,,,0.04,,2013-02-09 21:52:00,
2013-02-09 16:01:00,27.0,23.0,30.15,SSW,195,7.0,18.0,85,0.00,,,0.01,,2013-02-09 22:01:00,
2013-02-09 16:11:00,27.0,23.0,30.15,SSW,195,7.0,18.0,85,0.00,,,0.01,,2013-02-09 22:11:00,
2013-02-09 16:21:00,27.0,23.0,30.14,South,176,8.0,14.0,85,0.00,,,0.01,,2013-02-09 22:21:00,
2013-02-09 16:32:00,27.0,23.0,30.14,SSE,148,7.0,13.0,85,0.00,,,0.01,,2013-02-09 22:32:00,
2013-02-09 16:42:00,27.0,23.0,30.14,SSE,148,7.0,13.0,85,0.00,,,0.01,,2013-02-09 22:42:00,
2013-02-09 16:52:00,27.0,23.0,30.13,SSW,205,5.0,13.0,86,0.00,,,0.01,,2013-02-09 22:52:00,
2013-02-09 17:01:00,27.0,23.0,30.13,SSE,162,5.0,8.0,85,0.00,,,0.00,,2013-02-09 23:01:00,
2013-02-09 17:11:00,27.0,23.0,30.13,SSE,162,5.0,8.0,85,0.00,,,0.00,,2013-02-09 23:11:00,
2013-02-09 17:21:00,27.0,23.0,30.12,South,178,4.0,10.0,86,0.00,,,0.00,,2013-02-09 23:21:00,
2013-02-09 17:31:00,26.0,22.0,30.12,SSW,193,6.0,10.0,86,0.00,,,0.00,,2013-02-09 23:31:00,
2013-02-09 17:42:00,26.0,22.0,30.12,SSW,193,6.0,10.0,86,0.00,,,0.00,,2013-02-09 23:42:00,
2013-02-09 17:52:00,26.0,22.0,30.12,South,173,4.0,7.0,86,0.00,,,0.00,,2013-02-09 23:52:00,
2013-02-09 18:02:00,26.0,22.0,30.11,South,179,5.0,10.0,86,0.00,,,0.00,,2013-02-10 00:02:00,
2013-02-09 18:11:00,26.0,22.0,30.11,South,179,5.0,10.0,86,0.00,,,0.00,,2013-02-10 00:11:00,
2013-02-09 18:21:00,26.0,22.0,30.11,South,172,7.0,12.0,86,0.00,,,0.00,,2013-02-10 00:21:00,
2013-02-09 18:32:00,26.0,23.0,30.11,South,176,5.0,12.0,87,0.00,,,0.00,,2013-02-10 00:32:00,
2013-02-09 18:42:00,26.0,23.0,30.11,South,176,5.0,12.0,87,0.00,,,0.00,,2013-02-10 00:42:00,
2013-02-09 18:52:00,26.0,23.0,30.11,SE,132,5.0,10.0,87,0.00,,,0.00,,2013-02-10 00:52:00,
2013-02-09 19:01:00,26.0,23.0,30.10,South,179,5.0,10.0,87,0.00,,,0.00,,2013-02-10 01:01:00,
2013-02-09 19:12:00,26.0,23.0,30.10,South,179,5.0,10.0,87,0.00,,,0.00,,2013-02-10 01:12:00,
2013-02-09 19:21:00,26.0,23.0,30.10,SE,136,4.0,11.0,87,0.00,,,0.00,,2013-02-10 01:21:00,
2013-02-09 19:31:00,26.0,23.0,30.10,SSE,164,6.0,11.0,87,0.00,,,0.00,,2013-02-10 01:31:00,
2013-02-09 19:42:00,26.0,23.0,30.10,SSE,164,6.0,11.0,87,0.00,,,0.00,,2013-02-10 01:42:00,
2013-02-09 19:52:00,26.0,23.0,30.10,SE,145,4.0,10.0,87,0.00,,,0.00,,2013-02-10 01:52:00,
2013-02-09 20:01:00,26.0,23.0,30.09,South,182,3.0,14.0,87,0.00,,,0.00,,2013-02-10 02:01:00,
2013-02-09 20:11:00,26.0,23.0,30.09,South,182,3.0,14.0,87,0.00,,,0.00,,2013-02-10 02:11:00,
2013-02-09 20:22:00,26.0,23.0,30.09,SSE,159,2.0,8.0,88,0.00,,,0.00,,2013-02-10 02:22:00,
2013-02-09 20:32:00,26.0,23.0,30.09,South,171,1.0,11.0,88,0.00,,,0.00,,2013-02-10 02:32:00,
2013-02-09 20:42:00,26.0,23.0,30.09,South,171,1.0,11.0,88,0.00,,,0.00,,2013-02-10 02:42:00,
2013-02-09 20:52:00,26.0,23.0,30.09,South,176,7.0,14.0,88,0.00,,,0.00,,2013-02-10 02:52:00,
2013-02-09 21:01:00,26.0,23.0,30.09,SSW,192,4.0,13.0,88,0.00,,,0.00,,2013-02-10 03:01:00,
2013-02-09 21:11:00,26.0,23.0,30.09,SSW,192,4.0,13.0,88,0.00,,,0.00,,2013-02-10 03:11:00,
2013-02-09 21:21:00,27.0,24.0,30.09,SSW,194,4.0,12.0,88,0.00,,,0.00,,2013-02-10 03:21:00,
2013-02-09 21:32:00,27.0,24.0,30.09,South,186,5.0,11.0,88,0.00,,,0.00,,2013-02-10 03:32:00,
2013-02-09 21:41:00,27.0,24.0,30.09,South,186,5.0,11.0,88,0.00,,,0.00,,2013-02-10 03:41:00,
2013-02-09 21:52:00,27.0,24.0,30.08,South,171,4.0,11.0,88,0.00,,,0.00,,2013-02-10 03:52:00,
2013-02-09 22:01:00,27.0,24.0,30.08,SSW,192,2.0,7.0,88,0.00,,,0.00,,2013-02-10 04:01:00,
2013-02-09 22:11:00,27.0,24.0,30.08,SSW,192,2.0,7.0,88,0.00,,,0.00,,2013-02-10 04:11:00,
2013-02-09 22:21:00,27.0,24.0,30.07,South,187,1.0,7.0,88,0.00,,,0.00,,2013-02-10 04:21:00,
2013-02-09 22:32:00,26.0,23.0,30.06,South,187,0.0,1.0,88,0.00,,,0.00,,2013-02-10 04:32:00,
2013-02-09 22:42:00,26.0,23.0,30.06,South,187,0.0,1.0,88,0.00,,,0.00,,2013-02-10 04:42:00,
2013-02-09 22:52:00,25.0,22.0,30.06,South,187,0.0,0.0,88,0.00,,,0.00,,2013-02-10 04:52:00,
2013-02-09 23:01:00,25.0,22.0,30.06,South,186,0.0,2.0,89,0.00,,,0.00,,2013-02-10 05:01:00,
2013-02-09 23:11:00,25.0,22.0,30.06,South,186,0.0,2.0,89,0.00,,,0.00,,2013-02-10 05:11:00,
2013-02-09 23:22:00,24.0,21.0,30.06,South,186,0.0,1.0,89,0.00,,,0.00,,2013-02-10 05:22:00,
2013-02-09 23:31:00,23.0,20.0,30.04,South,186,0.0,0.0,89,0.00,,,0.00,,2013-02-10 05:31:00,
2013-02-09 23:41:00,23.0,20.0,30.04,South,186,0.0,0.0,89,0.00,,,0.00,,2013-02-10 05:41:00,
2013-02-09 23:52:00,22.0,19.0,30.04,South,186,0.0,0.0,89,0.00,,,0.00,,2013-02-10 05:52:00,